Location: Waco, TX
(31.5480°N, 97.1670°W)
Time: 23:15:27
(UTC-05:00)

ISS - Pass Details

Date: 14 October 2018
Orbit: 403 x 408 km, 51.6° (Epoch: 21 October)

Event Time Altitude Azimuth Distance (km) Brightness Sun altitude
Rises 19:50:37 0° 306° (NW) 2,330 0.9 -12.1°
Reaches altitude 10° 19:52:48 10° 297° (WNW) 1,466 0.0 -12.5°
Maximum altitude 19:55:50 35° 230° (SW) 677 -2.2 -13.2°
Drops below altitude 10° 19:58:51 10° 162° (SSE) 1,457 -1.2 -13.8°
Enters shadow 20:00:09 - 156° (SSE) 1,958 -0.6 -14.1°
Sets 20:01:02 0° 153° (SSE) 2,312 - -14.3°
